| time (UTC) | temp C | wind direction | speed KPH | gust KPH | rain 1hr cm | rain 24hr cm | rain mn cm | humidity % | barometer mb |
| 20260902060152 | 17 | 0 | 0.0 | 0.0 | 0.00 | 0.53 | 0.00 | 96 | 1019.6 |
| 20260902050151 | 17 | 79 | 0.0 | 3.2 | 0.00 | 0.53 | 0.00 | 96 | 1019.5 |
| 20260902040151 | 17 | 0 | 0.0 | 0.0 | 0.00 | 0.53 | 0.00 | 96 | 1019.3 |
| 20260902020151 | 17 | 0 | 0.0 | 0.0 | 0.03 | 0.53 | 0.53 | 95 | 1018.5 |
| 20260902010151 | 17 | 0 | 0.0 | 0.0 | 0.00 | 0.48 | 0.48 | 95 | 1018.0 |
| 20260902000151 | 17 | 91 | 0.0 | 4.8 | 0.00 | 0.48 | 0.48 | 95 | 1017.6 |
| 20260901230151 | 17 | 102 | 1.6 | 6.4 | 0.18 | 0.48 | 0.48 | 95 | 1017.3 |
| 20260901220151 | 18 | 85 | 3.2 | 9.7 | 0.08 | 0.30 | 0.30 | 94 | 1016.9 |
| 20260901200151 | 20 | 117 | 3.2 | 8.0 | 0.00 | 0.23 | 0.23 | 91 | 1015.4 |
| 20260901170151 | 22 | 185 | 0.0 | 1.6 | 0.00 | 0.23 | 0.23 | 94 | 1015.4 |
| 20260901160151 | 22 | 222 | 0.0 | 4.8 | 0.00 | 0.23 | 0.23 | 95 | 1015.7 |
| 20260901150151 | 21 | 0 | 0.0 | 0.0 | 0.03 | 0.20 | 0.20 | 95 | 1015.8 |
| 20260901140151 | 21 | 218 | 0.0 | 3.2 | 0.10 | 0.15 | 0.15 | 95 | 1016.5 |
| 20260901130152 | 21 | 189 | 0.0 | 4.8 | 0.00 | 0.05 | 0.05 | 95 | 1016.5 |
| 20260901110152 | 20 | 224 | 0.0 | 9.7 | 0.03 | 0.05 | 0.05 | 95 | 1016.5 |
| 20260901100153 | 20 | 168 | 0.0 | 4.8 | 0.00 | 0.00 | 0.00 | 94 | 1016.3 |
| 20260901090151 | 20 | 166 | 0.0 | 4.8 | 0.00 | 0.00 | 0.00 | 93 | 1016.5 |
| 20260901083150 | 21 | 181 | 0.0 | 6.4 | 0.00 | 0.00 | 0.00 | 93 | 1016.8 |
| 20260901080150 | 21 | 0 | 0.0 | 0.0 | 0.00 | 0.00 | 0.00 | 91 | 1017.0 |
| 20260901073150 | 21 | 0 | 0.0 | 0.0 | 0.00 | 0.00 | 0.00 | 91 | 1017.0 |
| 20260901070154 | 21 | 0 | 0.0 | 0.0 | 0.00 | 0.00 | 0.00 | 89 | 1017.3 |